Voltar ao catálogo

THOR ABLESTAR DEB

AtivoLEO
NORAD 148·DEBRIS·🇺🇸 United States

Lançado Jun 29, 1961 de Cape Canaveral Space Force Station

Loading…

Próximas Passagens (próximas 24 horas)

TLE

AtualizadoSource: Space-Track

Época: Sep 10, 2026, 23:46 UTC

1 00148U 61015AJ  26253.99045499  .00000362  00000-0  22524-3 0  9992
2 00148  65.7689 248.3563 0152102 277.4620  80.9201 14.10962262771082

Acompanhe THOR ABLESTAR DEB em tempo real com AllMySat

Download on the App Store